Location: Newark
(34.9756°N, 138.3828°E)
Time: 05:02:22
(UTC+00:00)

N. Korean satellite - Pass Details

Date: 13 December 2019
Orbit: 454 x 508 km, 97.2° (Epoch: 20 January)

Event Time Altitude Azimuth Distance (km) Brightness Sun altitude
Rises 19:30:04 0° 39° (NE) 2,508 10.5 -27.0°
Reaches altitude 10° 19:33:55 10° 83° (E) 1,610 10.1 -26.2°
Maximum altitude 19:34:29 10° 92° (E) 1,588 10.2 -26.1°
Drops below altitude 10° 19:35:04 10° 102° (ESE) 1,604 10.2 -26.0°
Sets 19:38:50 0° 146° (SE) 2,460 10.8 -25.2°
